Location: Church Tower
(37.7144°N, 119.6316°W)
Time: 19:50:23
(UTC+00:00)

Okean 2 Rocket - Pass Details

Date: 15 November 2025
Orbit: 611 x 635 km, 82.5° (Epoch: 08 December)

Event Time Altitude Azimuth Distance (km) Brightness Sun altitude
Rises 13:26:03 0° 359° (N) 2,881 6.3 -14.6°
Reaches altitude 10° 13:28:21 10° 5° (N) 1,973 5.6 -14.1°
Maximum altitude 13:32:35 49° 80° (E) 797 4.1 -13.3°
Drops below altitude 10° 13:36:47 10° 156° (SSE) 1,966 6.2 -12.5°
Sets 13:39:04 0° 161° (SSE) 2,870 7.0 -12.1°
